Minamitorishima, Japan

9:17 PM ChST on December 10, 2016 (GMT +1000)
Minamitorishima

Weather History for RJAM - February, 2014

Change the Weather History Date:

Saturday, February 8, 2014

  Actual Average Record
Temperature  
Mean Temperature 67 °F -  
Max Temperature 71 °F 76 °F - ()
Min Temperature 63 °F 66 °F - ()
Cooling Degree Days 2    
Growing Degree Days 17 (Base 50)    
Moisture  
Dew Point 65 °F    
Average Humidity 85    
Maximum Humidity 95    
Minimum Humidity 74    
Precipitation  
Precipitation 0.04 in 0.06 in - ()
Sea Level Pressure  
Sea Level Pressure 29.88 in    
Wind  
Wind Speed 9 mph ()    
Max Wind Speed 18 mph    
Max Gust Speed -    
T = Trace of Precipitation, MM = Missing Value Source: Averaged Metar Reports

Daily Weather History Graph

Daily Weather History Graph

Search for Another Location

Airport or City:

Trip Planner

Search our weather history database for the weather conditions in past years. The results will help you decide how hot, cold, wet, or windy it might be!

Date:

Astronomy

Feb. 08, 2014 Rise Set
Actual Time 6:22 AM ChST 5:34 PM ChST
Civil Twilight 5:59 AM ChST 5:57 PM ChST
Nautical Twilight 5:32 AM ChST 6:24 PM ChST
Astronomical Twilight 5:05 AM ChST 6:51 PM ChST
Moon 12:06 PM ChST (2/8) 12:50 AM ChST (2/8)
Length of Visible Light 11h 58m
Length of Day
11h 11m
Waxing Gibbous, 62% of the Moon is Illuminated
Feb 8
Waxing Gibbous
Feb 15
Full
Feb 23
Last Quarter
Mar 1
New
Mar 8
First Quarter

Hourly Weather History & Observations

Time (ChST) Temp. Dew Point Humidity Pressure Visibility Wind Dir Wind Speed Gust Speed Precip Events Conditions
12:00 AM 65 °F 64 °F 93% 29.83 in - SW 10.4 mph - -  
1:00 AM 65 °F 63 °F 90% 29.85 in - SSW 5.8 mph - -  
2:00 AM 64 °F 63 °F 95% 29.83 in - WNW 1.2 mph - -  
3:00 AM 66 °F 63 °F 86% 29.82 in - East 2.3 mph - -  
4:00 AM 66 °F 64 °F 92% 29.83 in - ENE 2.3 mph - -  
5:00 AM 65 °F 64 °F 93% 29.84 in - North 2.3 mph - -  
7:00 AM 67 °F 62 °F 81% 29.89 in - NNW 4.6 mph - -  
8:00 AM 70 °F 64 °F 75% 29.91 in - NNW 5.8 mph - -  
9:00 AM 71 °F 64 °F 74% 29.93 in - NNE 8.1 mph - -  
10:00 AM 70 °F 65 °F 81% 29.93 in - NNE 13.8 mph - -  
11:00 AM 71 °F 65 °F 76% 29.91 in - NNE 16.1 mph - -  
12:00 PM 71 °F 66 °F 80% 29.89 in - NNE 16.1 mph - -  
1:00 PM 70 °F 65 °F 79% 29.88 in - NNE 13.8 mph - -  
2:00 PM 70 °F 65 °F 80% 29.86 in - NNE 16.1 mph - -  
3:00 PM 69 °F 65 °F 82% 29.88 in - NE 17.3 mph - -  
4:00 PM 68 °F 65 °F 87% 29.88 in - NE 18.4 mph - -  
5:00 PM 67 °F 65 °F 90% 29.90 in - NE 16.1 mph - -  
6:00 PM 67 °F 65 °F 92% 29.89 in - NE 18.4 mph - -  
7:00 PM 68 °F 65 °F 88% 29.91 in - ENE 16.1 mph - -  
8:00 PM 68 °F 65 °F 88% 29.92 in - ENE 16.1 mph - -  
9:00 PM 69 °F 66 °F 86% 29.93 in - ENE 17.3 mph - -  
10:00 PM 70 °F 66 °F 83% 29.92 in - ENE 15.0 mph - -  
11:00 PM 70 °F 65 °F 81% 29.91 in - East 15.0 mph - -